Location: ????????
(60.5616°N, 46.8254°E)
Time: 00:09:04
(UTC+00:00)

Cosmos 1862 Rocket - Pass Details

Date: 18 February 2020
Orbit: 604 x 633 km, 82.5° (Epoch: 04 April)

Event Time Altitude Azimuth Distance (km) Brightness Sun altitude
Rises 16:02:49 0° 344° (NNW) 2,879 7.3 -17.0°
Reaches altitude 10° 16:05:03 10° 343° (NNW) 1,970 6.4 -17.3°
Maximum altitude 16:09:23 74° 260° (W) 638 3.7 -17.8°
Drops below altitude 10° 16:13:42 10° 175° (S) 1,958 6.0 -18.3°
Sets 16:15:55 0° 174° (S) 2,860 6.8 -18.6°
